Overview Statistics Trail Chart Weather Telemetry Raw packets
 

This is the latest recevied weather packets stored in our database for station/object G4WLC-1. If no packets are shown the sender has not sent any weather packets the latest 10 day(s).

<< 32 33 34 35 36 37 38 >>
Time Temp. Humidity Pressure Rain* Wind** Luminosity Snow
1788441424 22.22° C 74% 1017.6 hPa 0 mm - - -
1788441124 22.22° C 76% 1017.5 hPa 0 mm - - -
1788440824 22.22° C 76% 1017.6 hPa 0 mm - - -
1788440524 22.22° C 75% 1017.8 hPa 0 mm - - -
1788440224 22.22° C 74% 1017.8 hPa 0 mm - - -
1788439924 22.78° C 74% 1017.9 hPa 0 mm - - -
1788439624 22.22° C 75% 1017.8 hPa 0 mm - - -
1788439324 22.22° C 76% 1017.6 hPa 0 mm - - -
1788439024 22.22° C 75% 1017.7 hPa 0 mm - - -
1788438724 22.22° C 74% 1017.6 hPa 0 mm - - -
1788438424 22.78° C 77% 1017.5 hPa 0 mm - - -
1788438124 22.22° C 75% 1017.6 hPa 0 mm - - -
1788437824 22.22° C 77% 1017.7 hPa 0 mm - - -
1788437524 21.67° C 76% 1017.8 hPa 0 mm - - -
1788437224 22.22° C 76% 1017.7 hPa 0 mm - - -
1788436924 21.67° C 77% 1017.7 hPa 0 mm - - -
1788436624 21.67° C 78% 1017.8 hPa 0 mm - - -
1788436324 21.67° C 79% 1017.7 hPa 0 mm - - -
1788436024 21.11° C 79% 1017.8 hPa 0 mm - - -
1788435724 21.11° C 80% 1017.8 hPa 0 mm - - -
1788435424 21.11° C 80% 1017.9 hPa 0 mm - - -
1788435124 21.11° C 80% 1017.9 hPa 0 mm - - -
1788434824 21.11° C 80% 1017.8 hPa 0 mm - - -
1788434524 20.56° C 79% 1017.8 hPa 0 mm - - -
1788434224 20.56° C 80% 1017.9 hPa 0 mm - - -

* Rain latest hour (hover to see other rain measurements)
** Current wind speed in m/s (hover to see current wind gust speed)